Content
SEND FEEDBACK

Daily
Averages
Monthly
Summary
Mexico

PUERTO MORELOS, QUINTANA ROO


Home > North America > Mexico > Quintana Roo
Elevation: 20 feet     Latitude: 20 51N     Longitude: 086 52W

WEATHER
 
SELECT A DAY
Number of Records: 163,723;   Date Range: 1/1/95 - 7/28/14
 
SHARE

PRINT THIS DATA

[ ← Previous Day ]
WEATHER ALMANAC - JUNE 21, 2013
[ Next Day → ]
[ °C ]   °F
Weather ElementAverageHighLow
Temperature83.6 °F87.8 °F (11:42 am)77 °F (6:45 pm)
Dewpoint75.7 °F77 °F (1:44 am)73.4 °F (4:45 am)
Humidity77.8 %100 % (6:45 pm)66 % (10:40 am)
Barometer30.00 in30.03 in (10:40 am)29.95 in (3:46 am)
Wind Speed7.4 mph10.4 mph (11:42 am)
Weather ElementAverage
Visibility6.9 mi
Wind DirectionE (90 °)

Weather ElementTotal
Precipitation---
Cooling Degree Days17.4 (Base 65)
Growing Degree Days32.4 (Base 50)
Averaged from 23 records on June 21, 2013
WEATHER CONDITIONS BREAKOUT
WIND DIRECTION BREAKOUT
WEATHER BY HOUR - JUNE 21, 2013
[ °C ]   °F
Local TimeTemperatureDewpointHumidityBarometerVisibilityWind DirectionWind SpeedGust SpeedPrecipitationEventsConditions
1:44 AM82.4 °F77.0 °F84 %29.99 in7.0 miENE (70°)6.9 mphScattered Clouds
2:43 AM80.6 °F77.0 °F89 %29.98 in7.0 miEast (90°)8.1 mphPartly Cloudy
3:46 AM80.6 °F75.2 °F84 %29.95 in7.0 miSE (140°)5.8 mphClear
4:45 AM80.6 °F73.4 °F79 %29.96 in7.0 miEast (80°)5.8 mphClear
5:44 AM78.8 °F73.4 °F83 %29.97 in7.0 miENE (70°)5.8 mphPartly Cloudy
6:43 AM80.6 °F77.0 °F89 %29.98 in7.0 miEast (80°)5.8 mphScattered Clouds
7:43 AM84.2 °F75.2 °F74 %30.00 in7.0 miEast (80°)6.9 mphScattered Clouds
8:41 AM84.2 °F75.2 °F74 %30.01 in7.0 miESE (110°)8.1 mphMostly Cloudy
9:42 AM86.0 °F75.2 °F70 %30.02 in7.0 miESE (110°)8.1 mphMostly Cloudy
10:40 AM86.0 °F73.4 °F66 %30.03 in7.0 miEast (90°)9.2 mphMostly Cloudy
11:42 AM87.8 °F75.2 °F66 %30.03 in7.0 miEast (100°)10.4 mphMostly Cloudy
12:41 PM86.0 °F75.2 °F70 %30.03 in7.0 miEast (90°)6.9 mphMostly Cloudy
1:41 PM86.0 °F75.2 °F70 %30.02 in7.0 miEast (80°)5.8 mphScattered Clouds
2:42 PM87.8 °F75.2 °F66 %30.01 in7.0 miEast (100°)10.4 mphScattered Clouds
3:40 PM87.8 °F75.2 °F66 %30.00 in7.0 miESE (110°)9.2 mphScattered Clouds
4:42 PM87.8 °F75.2 °F66 %29.98 in7.0 miEast (80°)9.2 mphScattered Clouds
5:40 PM86.0 °F77.0 °F74 %29.98 in7.0 miEast (80°)9.2 mphMostly Cloudy
6:45 PM77.0 °F77.0 °F100 %29.99 in7.0 miEast (80°)8.1 mphMostly Cloudy
7:42 PM82.4 °F77.0 °F84 %29.99 in7.0 miEast (80°)4.6 mphMostly Cloudy
8:40 PM82.4 °F77.0 °F84 %30.00 in7.0 miEast (90°)9.2 mphScattered Clouds
9:42 PM82.4 °F77.0 °F84 %30.02 in6.0 miEast (90°)5.8 mphScattered Clouds
10:41 PM82.4 °F77.0 °F84 %30.03 in6.0 miEast (80°)5.8 mphScattered Clouds
11:41 PM82.4 °F77.0 °F84 %30.03 in6.0 miEast (90°)5.8 mphScattered Clouds
Hourly data recorded from MMUN, located miles away from Puerto Morelos, Quintana Roo







STORIES FROM OUR PARTNERS